{"data":{"norad_id":61618,"intl_designator":"2024-190B","name":"YAOGAN-43 03B","alt_names":[],"object_type":"PAYLOAD","status":"ACTIVE","operator":null,"country":"PRC","launch_date":"2024-10-23","launch_site_code":"XICLF","launch_vehicle":null,"mission":null,"orbit_class":"UNKNOWN","rcs_meters":null,"size_class":null,"mass_kg":null,"dimensions":null,"purposes":[],"wikipedia_slug":null,"has_3d_model":false,"image_url":null,"decayed_at":null,"tle_current":{"epoch":"2026-05-24T23:25:49.825632Z","epoch_age_seconds":70976,"freshness":"FRESH","line1":"1 61618U 24190B   26144.97627113  .00007795  00000+0  32492-3 0  9991","line2":"2 61618  34.9889 343.6118 0005224 155.2768 204.8198 15.22972513 88328","mean_motion":15.22972513,"eccentricity":0.0005224,"inclination_deg":34.9889,"raan_deg":343.6118,"arg_perigee_deg":155.2768,"mean_anomaly_deg":204.8198,"bstar":0.00032492,"rev_number":8832,"period_min":94.551936276476,"perigee_km":493.2888312621,"apogee_km":500.47184937927,"semimajor_km":6875.0173403207,"source":"CELESTRAK","updated_at":"2026-05-25T13:38:02.454248Z"}}}